Location: Unspecified
(33.9239°N, 118.0544°W)
Time: 17:48:46
(UTC-07:00)

Cosmos 2058 - Visible Passes

Search period start: 19 April 2015 00:00
Search period end: 29 April 2015 00:00
Orbit: 566 x 590 km, 82.5° (Epoch: 19 April)

Date Brightness Start Highest point End Pass type
(mag) Time Alt. Az. Time Alt. Az. Time Alt. Az.
19 Apr 5.9 05:31:05 10° SE 05:33:45 17° E 05:36:33 10° NE visible
20 Apr 5.5 05:34:56 10° SE 05:38:16 24° E 05:41:39 10° NE visible
21 Apr 4.8 05:39:03 10° SSE 05:42:46 34° E 05:46:32 10° NNE visible
22 Apr 4.0 05:43:19 10° SSE 05:47:17 50° E 05:51:18 10° NNE visible
26 Apr 5.9 04:27:03 10° ESE 04:28:45 13° E 04:30:41 10° ENE visible
27 Apr 5.6 04:30:29 10° SE 04:33:12 18° E 04:36:05 10° NE visible
28 Apr 5.1 04:34:19 10° SE 04:37:40 25° E 04:41:06 10° NE visible
